OneWeb SL0560

operational
NORAD ID: 55145 Int'l Des: 2023-004 Owner: ONEWEBN Country: UK Constellation: oneweb
LEOCIRCULARPOLARONEWEB_TYPE

About OneWeb SL0560

Description loading...

Live Position

Loading 3D Globe...

Upcoming Passes

Altitude History

Altitude vs Time

uPlot chart will show altitude changes over time

Two-Line Element Set

1 55145U 23004F 26036.80840519 -.00000069 00000-0 -20824-3 0 9997
2 55145 87.9208 1.5500 0001696 89.1735 270.9592 13.18687620152398
Epoch: Feb 5, 2026 • Age: 5 hours

Current Status

Altitude 1211.7 km
Velocity 7.25 km/s
Sub-Earth Point -53.79°S, 146.38°W
Launch Date Jan 10, 2023
Age 3 years
Type internet

Technical Details

Classification Payload
Mass 148.00 kg
Dry Mass 140.00 kg
Total Mass 148.00 kg
Length 1.30 m
Diameter 1.00 m
Span 5.00 m
Shape Trapezoid+2 pan
Manufacturer ONEWUS
Bus Type ARROW
Phase Status In Orbit
Owner/State ONEWEBN/UK

Large Constellations

Loading constellations...